| time (UTC) | temp F | wind direction | speed MPH | gust MPH | rain 1hr in | rain 24hr in | rain mn in | humidity % | barometer mb |
| 20260508025635 | 58 | 309 | 1.0 | 1.0 | 0.00 | 0.02 | 0.02 | 49 | 1013.2 |
| 20260508025133 | 59 | 280 | 0.0 | 1.0 | 0.00 | 0.02 | 0.02 | 48 | 1013.1 |
| 20260508024628 | 60 | 9 | 2.0 | 3.0 | 0.00 | 0.02 | 0.02 | 46 | 1013.0 |
| 20260508024126 | 60 | 344 | 2.0 | 2.0 | 0.00 | 0.02 | 0.02 | 45 | 1013.0 |
| 20260508023622 | 60 | 222 | 3.0 | 3.0 | 0.00 | 0.02 | 0.02 | 43 | 1013.1 |
| 20260508023120 | 60 | 286 | 1.0 | 1.0 | 0.00 | 0.02 | 0.02 | 44 | 1012.9 |
| 20260508022615 | 60 | 248 | 1.0 | 3.0 | 0.00 | 0.02 | 0.02 | 46 | 1012.8 |
| 20260508022113 | 59 | 313 | 3.0 | 3.0 | 0.00 | 0.02 | 0.02 | 48 | 1012.8 |
| 20260508021608 | 59 | 249 | 0.0 | 0.0 | 0.00 | 0.02 | 0.02 | 50 | 1012.7 |
| 20260508021104 | 59 | 253 | 0.0 | 0.0 | 0.00 | 0.02 | 0.02 | 49 | 1012.7 |
| 20260508020602 | 60 | 254 | 0.0 | 0.0 | 0.00 | 0.02 | 0.02 | 47 | 1012.6 |
| 20260508020059 | 61 | 255 | 0.0 | 0.0 | 0.00 | 0.02 | 0.02 | 44 | 1012.7 |
| 20260508015557 | 62 | 268 | 0.0 | 0.0 | 0.00 | 0.02 | 0.02 | 45 | 1012.6 |
| 20260508015053 | 63 | 272 | 0.0 | 1.0 | 0.00 | 0.02 | 0.02 | 44 | 1012.2 |
| 20260508014550 | 64 | 261 | 1.0 | 1.0 | 0.00 | 0.02 | 0.02 | 42 | 1012.2 |
| 20260508014046 | 66 | 247 | 0.0 | 1.0 | 0.00 | 0.02 | 0.02 | 41 | 1012.3 |
| 20260508013542 | 68 | 283 | 2.0 | 3.0 | 0.00 | 0.02 | 0.02 | 38 | 1012.2 |
| 20260508013039 | 69 | 259 | 0.0 | 0.0 | 0.00 | 0.02 | 0.02 | 37 | 1012.6 |
| 20260508012537 | 68 | 324 | 3.0 | 5.0 | 0.00 | 0.02 | 0.02 | 36 | 1012.3 |
| 20260508012034 | 69 | 277 | 0.0 | 0.0 | 0.00 | 0.02 | 0.02 | 37 | 1012.3 |
| 20260508011532 | 69 | 315 | 2.0 | 2.0 | 0.00 | 0.02 | 0.02 | 36 | 1012.5 |
| 20260508011029 | 69 | 287 | 3.0 | 3.0 | 0.00 | 0.02 | 0.02 | 37 | 1012.3 |
| 20260508010526 | 69 | 277 | 0.0 | 0.0 | 0.00 | 0.02 | 0.02 | 35 | 1012.5 |
| 20260508010024 | 70 | 311 | 3.0 | 3.0 | 0.00 | 0.02 | 0.02 | 34 | 1012.2 |
| 20260508005520 | 70 | 292 | 2.0 | 2.0 | 0.00 | 0.02 | 0.02 | 33 | 1012.3 |
| 20260508005017 | 70 | 262 | 1.0 | 1.0 | 0.00 | 0.02 | 0.02 | 36 | 1012.5 |
| 20260508004513 | 70 | 270 | 1.0 | 2.0 | 0.00 | 0.02 | 0.02 | 35 | 1012.3 |
| 20260508004010 | 70 | 253 | 2.0 | 2.0 | 0.00 | 0.02 | 0.02 | 35 | 1012.2 |
| 20260508003506 | 70 | 286 | 0.0 | 0.0 | 0.00 | 0.02 | 0.02 | 36 | 1012.2 |
| 20260508003005 | 70 | 250 | 2.0 | 3.0 | 0.00 | 0.02 | 0.02 | 35 | 1012.1 |
| 20260508002459 | 70 | 254 | 2.0 | 2.0 | 0.00 | 0.02 | 0.02 | 37 | 1012.1 |
| 20260508001956 | 70 | 282 | 1.0 | 1.0 | 0.00 | 0.02 | 0.02 | 37 | 1012.5 |
| 20260508001452 | 70 | 265 | 5.0 | 7.0 | 0.00 | 0.02 | 0.02 | 37 | 1012.2 |
| 20260508000949 | 70 | 266 | 1.0 | 2.0 | 0.00 | 0.02 | 0.02 | 37 | 1012.3 |
| 20260508000444 | 69 | 280 | 2.0 | 2.0 | 0.00 | 0.02 | 0.02 | 38 | 1012.3 |
| 20260507235942 | 69 | 282 | 0.0 | 1.0 | 0.00 | 0.02 | 0.02 | 39 | 1012.3 |
| 20260507235438 | 69 | 301 | 2.0 | 3.0 | 0.00 | 0.02 | 0.02 | 41 | 1012.5 |
| 20260507234937 | 69 | 350 | 2.0 | 2.0 | 0.00 | 0.02 | 0.02 | 43 | 1012.2 |
| 20260507234433 | 68 | 265 | 1.0 | 2.0 | 0.00 | 0.02 | 0.02 | 43 | 1012.2 |
| 20260507233929 | 68 | 7 | 5.0 | 9.0 | 0.00 | 0.02 | 0.02 | 43 | 1012.2 |
| 20260507233426 | 67 | 256 | 2.0 | 7.0 | 0.00 | 0.02 | 0.02 | 46 | 1012.2 |
| 20260507232925 | 66 | 329 | 2.0 | 2.0 | 0.00 | 0.02 | 0.02 | 46 | 1012.2 |
| 20260507232421 | 66 | 270 | 3.0 | 3.0 | 0.00 | 0.02 | 0.02 | 44 | 1012.5 |
| 20260507231918 | 67 | 238 | 8.0 | 11.0 | 0.00 | 0.02 | 0.02 | 41 | 1012.0 |
| 20260507231414 | 67 | 236 | 5.0 | 6.0 | 0.00 | 0.02 | 0.02 | 41 | 1012.3 |
| 20260507230911 | 67 | 238 | 4.0 | 5.0 | 0.00 | 0.02 | 0.02 | 39 | 1012.5 |
| 20260507230409 | 68 | 267 | 0.0 | 0.0 | 0.00 | 0.02 | 0.02 | 37 | 1012.3 |
| 20260507225908 | 68 | 311 | 0.0 | 0.0 | 0.00 | 0.02 | 0.02 | 38 | 1012.3 |
| 20260507225405 | 68 | 265 | 1.0 | 1.0 | 0.00 | 0.02 | 0.02 | 34 | 1012.3 |
| 20260507224901 | 68 | 247 | 0.0 | 0.0 | 0.00 | 0.02 | 0.02 | 37 | 1012.1 |
| 20260507224357 | 68 | 242 | 3.0 | 5.0 | 0.00 | 0.02 | 0.02 | 38 | 1012.3 |
| 20260507223854 | 68 | 250 | 2.0 | 3.0 | 0.00 | 0.02 | 0.02 | 39 | 1012.3 |
| 20260507223350 | 67 | 260 | 2.0 | 3.0 | 0.00 | 0.02 | 0.02 | 37 | 1012.3 |
| 20260507222848 | 66 | 326 | 1.0 | 2.0 | 0.00 | 0.02 | 0.02 | 40 | 1012.6 |
| 20260507222344 | 66 | 17 | 5.0 | 6.0 | 0.00 | 0.02 | 0.02 | 42 | 1012.6 |
| 20260507221841 | 64 | 71 | 9.0 | 10.0 | 0.00 | 0.02 | 0.02 | 43 | 1012.7 |
| 20260507221337 | 64 | 30 | 11.0 | 11.0 | 0.00 | 0.02 | 0.02 | 42 | 1012.6 |
| 20260507220833 | 65 | 16 | 10.0 | 14.0 | 0.00 | 0.02 | 0.02 | 46 | 1012.6 |
| 20260507220332 | 66 | 25 | 4.0 | 5.0 | 0.00 | 0.02 | 0.02 | 41 | 1012.6 |
| 20260507215827 | 66 | 351 | 3.0 | 3.0 | 0.00 | 0.02 | 0.02 | 37 | 1012.7 |
| 20260507215324 | 67 | 354 | 3.0 | 5.0 | 0.00 | 0.02 | 0.02 | 37 | 1012.7 |
| 20260507214821 | 66 | 247 | 1.0 | 1.0 | 0.00 | 0.02 | 0.02 | 39 | 1012.6 |
| 20260507214319 | 67 | 233 | 3.0 | 3.0 | 0.00 | 0.02 | 0.02 | 40 | 1012.6 |
| 20260507213814 | 66 | 237 | 1.0 | 2.0 | 0.00 | 0.02 | 0.02 | 41 | 1012.8 |
| 20260507213312 | 64 | 19 | 3.0 | 3.0 | 0.00 | 0.02 | 0.02 | 43 | 1012.8 |
| 20260507212808 | 62 | 350 | 3.0 | 5.0 | 0.05 | 0.02 | 0.02 | 53 | 1012.8 |
| 20260507212307 | 62 | 31 | 3.0 | 3.0 | 0.12 | 0.02 | 0.02 | 46 | 1013.1 |
| 20260507211801 | 64 | 14 | 6.0 | 7.0 | 0.00 | 0.00 | 0.00 | 49 | 1013.1 |
| 20260507211258 | 67 | 3 | 5.0 | 6.0 | 0.00 | 0.00 | 0.00 | 38 | 1013.0 |
| 20260507210754 | 66 | 134 | 1.0 | 1.0 | 0.00 | 0.00 | 0.00 | 35 | 1013.0 |
| 20260507210251 | 67 | 240 | 5.0 | 6.0 | 0.00 | 0.00 | 0.00 | 35 | 1013.1 |
| 20260507205748 | 68 | 192 | 2.0 | 2.0 | 0.00 | 0.00 | 0.00 | 35 | 1012.9 |
| 20260507205245 | 66 | 260 | 2.0 | 2.0 | 0.00 | 0.00 | 0.00 | 46 | 1013.1 |
| 20260507204741 | 64 | 251 | 1.0 | 2.0 | 0.00 | 0.00 | 0.00 | 56 | 1013.1 |
| 20260507204239 | 66 | 292 | 2.0 | 2.0 | 0.00 | 0.00 | 0.00 | 49 | 1013.2 |
| 20260507203736 | 67 | 269 | 1.0 | 1.0 | 0.00 | 0.00 | 0.00 | 36 | 1012.9 |
| 20260507203233 | 68 | 351 | 4.0 | 7.0 | 0.00 | 0.00 | 0.00 | 33 | 1012.9 |
| 20260507202729 | 69 | 339 | 2.0 | 2.0 | 0.00 | 0.00 | 0.00 | 31 | 1012.9 |
| 20260507202220 | 69 | 277 | 2.0 | 2.0 | 0.00 | 0.00 | 0.00 | 32 | 1013.0 |
| 20260507201715 | 69 | 226 | 4.0 | 5.0 | 0.00 | 0.00 | 0.00 | 31 | 1012.8 |
| 20260507201212 | 69 | 279 | 1.0 | 1.0 | 0.00 | 0.00 | 0.00 | 34 | 1012.9 |
| 20260507200708 | 69 | 356 | 3.0 | 3.0 | 0.00 | 0.00 | 0.00 | 33 | 1012.9 |
| 20260507200204 | 69 | 241 | 1.0 | 1.0 | 0.00 | 0.00 | 0.00 | 33 | 1013.0 |
| 20260507195701 | 70 | 284 | 5.0 | 7.0 | 0.00 | 0.00 | 0.00 | 33 | 1012.7 |
| 20260507195158 | 72 | 278 | 1.0 | 2.0 | 0.00 | 0.00 | 0.00 | 31 | 1012.9 |
| 20260507194655 | 71 | 248 | 3.0 | 6.0 | 0.00 | 0.00 | 0.00 | 31 | 1012.8 |
| 20260507194150 | 69 | 343 | 4.0 | 5.0 | 0.00 | 0.00 | 0.00 | 31 | 1012.9 |
| 20260507193648 | 70 | 345 | 6.0 | 7.0 | 0.00 | 0.00 | 0.00 | 30 | 1013.0 |
| 20260507193145 | 71 | 301 | 4.0 | 5.0 | 0.00 | 0.00 | 0.00 | 31 | 1012.9 |
| 20260507192640 | 71 | 274 | 1.0 | 1.0 | 0.00 | 0.00 | 0.00 | 32 | 1012.8 |
| 20260507192138 | 72 | 337 | 4.0 | 5.0 | 0.00 | 0.00 | 0.00 | 31 | 1012.7 |
| 20260507191633 | 70 | 268 | 2.0 | 3.0 | 0.00 | 0.00 | 0.00 | 33 | 1012.7 |
| 20260507191130 | 69 | 246 | 10.0 | 14.0 | 0.00 | 0.00 | 0.00 | 33 | 1012.8 |
| 20260507190628 | 69 | 311 | 3.0 | 3.0 | 0.00 | 0.00 | 0.00 | 34 | 1012.7 |
| 20260507190127 | 69 | 275 | 2.0 | 3.0 | 0.00 | 0.00 | 0.00 | 33 | 1012.8 |
| 20260507185625 | 71 | 325 | 6.0 | 7.0 | 0.00 | 0.00 | 0.00 | 30 | 1012.9 |
| 20260507185121 | 71 | 283 | 4.0 | 7.0 | 0.00 | 0.00 | 0.00 | 32 | 1012.8 |
| 20260507184619 | 69 | 317 | 3.0 | 3.0 | 0.00 | 0.00 | 0.00 | 32 | 1012.9 |
| 20260507184116 | 68 | 278 | 4.0 | 5.0 | 0.00 | 0.00 | 0.00 | 33 | 1013.0 |
| 20260507183612 | 68 | 242 | 4.0 | 5.0 | 0.00 | 0.00 | 0.00 | 34 | 1012.9 |
| 20260507183109 | 69 | 334 | 5.0 | 6.0 | 0.00 | 0.00 | 0.00 | 31 | 1013.0 |
| 20260507182606 | 68 | 284 | 0.0 | 1.0 | 0.00 | 0.00 | 0.00 | 32 | 1013.0 |
| 20260507182102 | 68 | 325 | 8.0 | 9.0 | 0.00 | 0.00 | 0.00 | 32 | 1013.0 |
| 20260507181559 | 68 | 294 | 3.0 | 5.0 | 0.00 | 0.00 | 0.00 | 33 | 1013.0 |
| 20260507181055 | 69 | 305 | 4.0 | 6.0 | 0.00 | 0.00 | 0.00 | 31 | 1013.0 |
| 20260507180551 | 68 | 249 | 2.0 | 2.0 | 0.00 | 0.00 | 0.00 | 33 | 1013.1 |
| 20260507180049 | 68 | 334 | 3.0 | 3.0 | 0.00 | 0.00 | 0.00 | 33 | 1013.3 |
| 20260507175545 | 67 | 318 | 3.0 | 3.0 | 0.00 | 0.00 | 0.00 | 35 | 1013.3 |
| 20260507175042 | 66 | 248 | 2.0 | 2.0 | 0.00 | 0.00 | 0.00 | 35 | 1013.1 |
| 20260507174539 | 66 | 317 | 3.0 | 3.0 | 0.00 | 0.00 | 0.00 | 34 | 1013.3 |
| 20260507174037 | 67 | 315 | 2.0 | 2.0 | 0.00 | 0.00 | 0.00 | 36 | 1013.2 |
| 20260507173534 | 67 | 292 | 4.0 | 7.0 | 0.00 | 0.00 | 0.00 | 35 | 1013.4 |
| 20260507173031 | 66 | 228 | 2.0 | 2.0 | 0.00 | 0.00 | 0.00 | 35 | 1013.4 |
| 20260507172526 | 65 | 261 | 1.0 | 1.0 | 0.00 | 0.00 | 0.00 | 36 | 1013.4 |
| 20260507172024 | 64 | 288 | 2.0 | 2.0 | 0.00 | 0.00 | 0.00 | 36 | 1013.6 |
| 20260507171519 | 65 | 337 | 3.0 | 3.0 | 0.00 | 0.00 | 0.00 | 35 | 1013.8 |
| 20260507171017 | 67 | 338 | 4.0 | 5.0 | 0.00 | 0.00 | 0.00 | 34 | 1013.7 |
| 20260507170513 | 67 | 280 | 2.0 | 2.0 | 0.00 | 0.00 | 0.00 | 36 | 1013.7 |
| 20260507170010 | 68 | 280 | 3.0 | 7.0 | 0.00 | 0.00 | 0.00 | 34 | 1013.7 |
| 20260507165506 | 67 | 11 | 3.0 | 3.0 | 0.00 | 0.00 | 0.00 | 35 | 1013.6 |
| 20260507165003 | 67 | 292 | 4.0 | 7.0 | 0.00 | 0.00 | 0.00 | 35 | 1013.4 |
| 20260507164459 | 67 | 332 | 2.0 | 2.0 | 0.00 | 0.00 | 0.00 | 35 | 1013.4 |
| 20260507163956 | 66 | 195 | 2.0 | 2.0 | 0.00 | 0.00 | 0.00 | 34 | 1013.6 |
| 20260507163453 | 66 | 342 | 3.0 | 6.0 | 0.00 | 0.00 | 0.00 | 35 | 1013.8 |
| 20260507162950 | 65 | 258 | 2.0 | 3.0 | 0.00 | 0.00 | 0.00 | 37 | 1013.7 |
| 20260507162446 | 66 | 338 | 4.0 | 5.0 | 0.00 | 0.00 | 0.00 | 35 | 1013.6 |
| 20260507161943 | 65 | 227 | 3.0 | 3.0 | 0.00 | 0.00 | 0.00 | 37 | 1013.4 |
| 20260507161439 | 65 | 348 | 3.0 | 5.0 | 0.00 | 0.00 | 0.00 | 36 | 1013.4 |
| 20260507160936 | 65 | 220 | 2.0 | 2.0 | 0.00 | 0.00 | 0.00 | 36 | 1013.4 |
| 20260507160432 | 64 | 11 | 2.0 | 2.0 | 0.00 | 0.00 | 0.00 | 36 | 1013.4 |
| 20260507155927 | 63 | 292 | 1.0 | 2.0 | 0.00 | 0.00 | 0.00 | 37 | 1013.4 |
| 20260507155424 | 62 | 339 | 2.0 | 3.0 | 0.00 | 0.00 | 0.00 | 38 | 1013.7 |
| 20260507154921 | 61 | 274 | 2.0 | 3.0 | 0.00 | 0.00 | 0.00 | 39 | 1013.7 |
| 20260507154418 | 60 | 286 | 1.0 | 1.0 | 0.00 | 0.00 | 0.00 | 39 | 1013.6 |
| 20260507153915 | 61 | 282 | 3.0 | 5.0 | 0.00 | 0.00 | 0.00 | 39 | 1013.6 |
| 20260507153412 | 60 | 317 | 2.0 | 3.0 | 0.00 | 0.00 | 0.00 | 40 | 1013.7 |
| 20260507152908 | 60 | 237 | 3.0 | 3.0 | 0.00 | 0.00 | 0.00 | 40 | 1013.6 |
| 20260507152404 | 60 | 254 | 3.0 | 3.0 | 0.00 | 0.00 | 0.00 | 40 | 1013.6 |
| 20260507151900 | 59 | 279 | 3.0 | 3.0 | 0.00 | 0.00 | 0.00 | 40 | 1013.8 |
| 20260507151356 | 57 | 261 | 2.0 | 3.0 | 0.00 | 0.00 | 0.00 | 44 | 1013.8 |
| 20260507150854 | 56 | 290 | 1.0 | 2.0 | 0.00 | 0.00 | 0.00 | 45 | 1013.9 |
| 20260507150350 | 55 | 325 | 3.0 | 3.0 | 0.00 | 0.00 | 0.00 | 44 | 1013.9 |
| 20260507145847 | 55 | 348 | 3.0 | 6.0 | 0.00 | 0.00 | 0.00 | 44 | 1014.0 |
| 20260507145343 | 55 | 347 | 5.0 | 5.0 | 0.00 | 0.00 | 0.00 | 45 | 1014.0 |
| 20260507144840 | 55 | 340 | 3.0 | 3.0 | 0.00 | 0.00 | 0.00 | 46 | 1013.7 |
| 20260507144337 | 54 | 320 | 3.0 | 3.0 | 0.00 | 0.00 | 0.00 | 48 | 1013.7 |
| 20260507143834 | 53 | 321 | 2.0 | 2.0 | 0.00 | 0.00 | 0.00 | 49 | 1013.9 |
| 20260507143331 | 53 | 334 | 2.0 | 3.0 | 0.00 | 0.00 | 0.00 | 49 | 1013.8 |
| 20260507142827 | 52 | 332 | 2.0 | 2.0 | 0.00 | 0.00 | 0.00 | 51 | 1013.9 |
| 20260507142324 | 51 | 293 | 3.0 | 5.0 | 0.00 | 0.00 | 0.00 | 51 | 1013.9 |
| 20260507141821 | 51 | 328 | 3.0 | 3.0 | 0.00 | 0.00 | 0.00 | 51 | 1014.0 |
| 20260507141317 | 51 | 299 | 2.0 | 2.0 | 0.00 | 0.00 | 0.00 | 52 | 1013.8 |
| 20260507140814 | 50 | 268 | 0.0 | 0.0 | 0.00 | 0.00 | 0.00 | 54 | 1013.7 |
| 20260507140311 | 50 | 302 | 1.0 | 1.0 | 0.00 | 0.00 | 0.00 | 53 | 1013.7 |
| 20260507135808 | 50 | 292 | 1.0 | 2.0 | 0.00 | 0.00 | 0.00 | 54 | 1013.3 |
| 20260507135306 | 50 | 292 | 0.0 | 0.0 | 0.00 | 0.00 | 0.00 | 55 | 1013.4 |
| 20260507134802 | 50 | 300 | 1.0 | 2.0 | 0.00 | 0.00 | 0.00 | 56 | 1013.8 |
| 20260507134258 | 50 | 308 | 1.0 | 2.0 | 0.00 | 0.00 | 0.00 | 58 | 1013.4 |
| 20260507133754 | 49 | 312 | 0.0 | 0.0 | 0.00 | 0.00 | 0.00 | 56 | 1013.4 |
| 20260507133250 | 48 | 316 | 0.0 | 0.0 | 0.00 | 0.00 | 0.00 | 57 | 1013.3 |
| 20260507132748 | 48 | 322 | 0.0 | 1.0 | 0.00 | 0.00 | 0.00 | 56 | 1013.1 |
| 20260507132239 | 47 | 326 | 0.0 | 1.0 | 0.00 | 0.00 | 0.00 | 59 | 1013.2 |
| 20260507131736 | 47 | 328 | 0.0 | 0.0 | 0.00 | 0.00 | 0.00 | 60 | 1013.0 |
| 20260507131233 | 47 | 330 | 0.0 | 0.0 | 0.00 | 0.00 | 0.00 | 63 | 1013.1 |
| 20260507130730 | 46 | 331 | 1.0 | 2.0 | 0.00 | 0.00 | 0.00 | 62 | 1013.0 |
| 20260507130228 | 46 | 333 | 1.0 | 1.0 | 0.00 | 0.00 | 0.00 | 64 | 1013.1 |
| 20260507125726 | 46 | 334 | 1.0 | 1.0 | 0.00 | 0.00 | 0.00 | 65 | 1012.9 |
| 20260507125223 | 45 | 337 | 1.0 | 1.0 | 0.00 | 0.00 | 0.00 | 66 | 1012.8 |
| 20260507124720 | 44 | 340 | 0.0 | 0.0 | 0.00 | 0.00 | 0.00 | 69 | 1012.7 |
| 20260507124217 | 44 | 340 | 0.0 | 0.0 | 0.00 | 0.00 | 0.00 | 68 | 1012.6 |
| 20260507123715 | 44 | 341 | 0.0 | 0.0 | 0.00 | 0.00 | 0.00 | 66 | 1012.6 |
| 20260507123212 | 43 | 341 | 0.0 | 0.0 | 0.00 | 0.00 | 0.00 | 66 | 1012.6 |
| 20260507122708 | 43 | 341 | 0.0 | 0.0 | 0.00 | 0.00 | 0.00 | 67 | 1012.7 |
| 20260507122203 | 43 | 341 | 0.0 | 0.0 | 0.00 | 0.00 | 0.00 | 67 | 1012.3 |
| 20260507121659 | 43 | 345 | 0.0 | 0.0 | 0.00 | 0.00 | 0.00 | 64 | 1012.3 |
| 20260507121155 | 43 | 346 | 0.0 | 0.0 | 0.00 | 0.00 | 0.00 | 64 | 1012.3 |
| 20260507120652 | 43 | 3 | 0.0 | 0.0 | 0.00 | 0.00 | 0.00 | 63 | 1012.3 |
| 20260507120149 | 43 | 3 | 0.0 | 0.0 | 0.00 | 0.00 | 0.00 | 65 | 1012.3 |
| 20260507115645 | 43 | 6 | 0.0 | 0.0 | 0.00 | 0.00 | 0.00 | 64 | 1012.1 |
| 20260507115140 | 43 | 9 | 1.0 | 1.0 | 0.00 | 0.00 | 0.00 | 65 | 1012.1 |
| 20260507114636 | 44 | 10 | 0.0 | 1.0 | 0.00 | 0.00 | 0.00 | 65 | 1012.1 |
| 20260507114134 | 43 | 20 | 5.0 | 5.0 | 0.00 | 0.00 | 0.00 | 65 | 1012.1 |
| 20260507113631 | 43 | 29 | 0.0 | 0.0 | 0.00 | 0.00 | 0.00 | 62 | 1011.9 |
| 20260507113128 | 44 | 23 | 4.0 | 6.0 | 0.00 | 0.00 | 0.00 | 58 | 1012.0 |
| 20260507112626 | 44 | 339 | 0.0 | 0.0 | 0.00 | 0.00 | 0.00 | 59 | 1011.8 |
| 20260507112122 | 44 | 342 | 0.0 | 0.0 | 0.00 | 0.00 | 0.00 | 58 | 1011.8 |
| 20260507111620 | 43 | 343 | 2.0 | 2.0 | 0.00 | 0.00 | 0.00 | 59 | 1011.8 |
| 20260507111116 | 43 | 343 | 1.0 | 1.0 | 0.00 | 0.00 | 0.00 | 62 | 1011.7 |
| 20260507110612 | 42 | 343 | 0.0 | 0.0 | 0.00 | 0.00 | 0.00 | 63 | 1011.8 |
| 20260507110108 | 43 | 344 | 0.0 | 0.0 | 0.00 | 0.00 | 0.00 | 62 | 1011.9 |
| 20260507105605 | 43 | 343 | 2.0 | 2.0 | 0.00 | 0.00 | 0.00 | 62 | 1012.1 |
| 20260507105056 | 43 | 343 | 0.0 | 0.0 | 0.00 | 0.00 | 0.00 | 63 | 1011.9 |
| 20260507104554 | 43 | 343 | 0.0 | 0.0 | 0.00 | 0.00 | 0.00 | 62 | 1011.9 |
| 20260507104050 | 43 | 343 | 0.0 | 0.0 | 0.00 | 0.00 | 0.00 | 63 | 1012.0 |
| 20260507103546 | 43 | 344 | 0.0 | 0.0 | 0.00 | 0.00 | 0.00 | 65 | 1012.0 |
| 20260507103043 | 43 | 344 | 0.0 | 0.0 | 0.00 | 0.00 | 0.00 | 64 | 1011.9 |
| 20260507102539 | 44 | 344 | 0.0 | 0.0 | 0.00 | 0.00 | 0.00 | 62 | 1011.9 |
| 20260507102036 | 44 | 344 | 0.0 | 1.0 | 0.00 | 0.00 | 0.00 | 60 | 1011.8 |
| 20260507101531 | 45 | 344 | 0.0 | 0.0 | 0.00 | 0.00 | 0.00 | 59 | 1011.9 |
| 20260507101028 | 44 | 345 | 1.0 | 2.0 | 0.00 | 0.00 | 0.00 | 60 | 1011.8 |
| 20260507100525 | 44 | 345 | 0.0 | 0.0 | 0.00 | 0.00 | 0.00 | 62 | 1012.0 |
| 20260507100023 | 45 | 14 | 0.0 | 1.0 | 0.00 | 0.00 | 0.00 | 58 | 1011.8 |
| 20260507095521 | 44 | 17 | 3.0 | 3.0 | 0.00 | 0.00 | 0.00 | 60 | 1011.7 |
| 20260507095017 | 45 | 14 | 3.0 | 3.0 | 0.00 | 0.00 | 0.00 | 61 | 1012.0 |
| 20260507094514 | 46 | 18 | 5.0 | 5.0 | 0.00 | 0.00 | 0.00 | 58 | 1011.8 |
| 20260507094011 | 46 | 13 | 2.0 | 2.0 | 0.00 | 0.00 | 0.00 | 56 | 1011.6 |
| 20260507093508 | 47 | 13 | 2.0 | 2.0 | 0.00 | 0.00 | 0.00 | 54 | 1011.7 |
| 20260507093007 | 47 | 22 | 7.0 | 8.0 | 0.00 | 0.00 | 0.00 | 52 | 1011.5 |
| 20260507092503 | 47 | 19 | 4.0 | 5.0 | 0.00 | 0.00 | 0.00 | 51 | 1011.3 |
| 20260507092000 | 46 | 16 | 3.0 | 3.0 | 0.00 | 0.00 | 0.00 | 54 | 1010.9 |
| 20260507091456 | 46 | 24 | 4.0 | 5.0 | 0.00 | 0.00 | 0.00 | 56 | 1010.9 |
| 20260507090952 | 46 | 14 | 5.0 | 6.0 | 0.00 | 0.00 | 0.00 | 56 | 1010.9 |
| 20260507090448 | 46 | 29 | 3.0 | 3.0 | 0.00 | 0.00 | 0.00 | 55 | 1010.7 |
| 20260507085945 | 46 | 29 | 3.0 | 3.0 | 0.00 | 0.00 | 0.00 | 54 | 1010.8 |
| 20260507085442 | 46 | 8 | 3.0 | 3.0 | 0.00 | 0.00 | 0.00 | 57 | 1010.8 |
| 20260507084939 | 47 | 15 | 5.0 | 6.0 | 0.00 | 0.00 | 0.00 | 54 | 1010.8 |
| 20260507084436 | 47 | 56 | 0.0 | 0.0 | 0.00 | 0.00 | 0.00 | 54 | 1010.6 |
| 20260507083933 | 48 | 56 | 2.0 | 2.0 | 0.00 | 0.00 | 0.00 | 54 | 1010.6 |
| 20260507083429 | 49 | 49 | 2.0 | 2.0 | 0.00 | 0.00 | 0.00 | 52 | 1010.7 |
| 20260507082925 | 50 | 44 | 2.0 | 2.0 | 0.00 | 0.00 | 0.00 | 49 | 1010.6 |
| 20260507082421 | 51 | 43 | 2.0 | 2.0 | 0.00 | 0.00 | 0.00 | 47 | 1010.8 |
| 20260507081918 | 51 | 42 | 2.0 | 2.0 | 0.00 | 0.00 | 0.00 | 47 | 1010.6 |
| 20260507081414 | 50 | 12 | 4.0 | 5.0 | 0.00 | 0.00 | 0.00 | 48 | 1010.5 |
| 20260507080911 | 50 | 95 | 3.0 | 3.0 | 0.00 | 0.00 | 0.00 | 50 | 1010.3 |
| 20260507080408 | 51 | 115 | 6.0 | 7.0 | 0.00 | 0.00 | 0.00 | 48 | 1010.0 |
| 20260507075903 | 51 | 29 | 5.0 | 6.0 | 0.00 | 0.00 | 0.00 | 46 | 1010.4 |
| 20260507075359 | 52 | 1 | 5.0 | 6.0 | 0.00 | 0.00 | 0.00 | 47 | 1010.4 |
| 20260507074856 | 54 | 118 | 5.0 | 7.0 | 0.00 | 0.00 | 0.00 | 44 | 1009.8 |
| 20260507074353 | 53 | 128 | 8.0 | 10.0 | 0.00 | 0.00 | 0.00 | 44 | 1009.9 |
| 20260507073850 | 53 | 8 | 5.0 | 6.0 | 0.00 | 0.00 | 0.00 | 47 | 1010.3 |
| 20260507073347 | 53 | 96 | 5.0 | 6.0 | 0.00 | 0.00 | 0.00 | 45 | 1009.8 |
| 20260507072844 | 53 | 108 | 6.0 | 9.0 | 0.00 | 0.00 | 0.00 | 45 | 1010.0 |
| 20260507072341 | 54 | 159 | 9.0 | 10.0 | 0.00 | 0.00 | 0.00 | 43 | 1010.0 |
| 20260507071839 | 54 | 104 | 9.0 | 10.0 | 0.00 | 0.00 | 0.00 | 41 | 1009.9 |
| 20260507071336 | 54 | 66 | 6.0 | 8.0 | 0.00 | 0.00 | 0.00 | 42 | 1010.0 |
| 20260507070832 | 55 | 56 | 7.0 | 7.0 | 0.00 | 0.00 | 0.00 | 40 | 1009.9 |
| 20260507070329 | 55 | 36 | 5.0 | 6.0 | 0.00 | 0.00 | 0.00 | 41 | 1009.8 |
| 20260507065826 | 56 | 47 | 5.0 | 7.0 | 0.00 | 0.00 | 0.00 | 39 | 1009.6 |
| 20260507065323 | 56 | 66 | 9.0 | 11.0 | 0.00 | 0.00 | 0.00 | 36 | 1009.5 |
| 20260507064820 | 55 | 47 | 3.0 | 3.0 | 0.00 | 0.00 | 0.00 | 40 | 1009.7 |
| 20260507064318 | 56 | 25 | 5.0 | 6.0 | 0.00 | 0.00 | 0.00 | 40 | 1009.8 |
| 20260507063816 | 57 | 59 | 22.0 | 26.0 | 0.00 | 0.00 | 0.00 | 36 | 1009.3 |
| 20260507063313 | 56 | 26 | 15.0 | 18.0 | 0.00 | 0.00 | 0.00 | 38 | 1009.8 |
| 20260507062809 | 56 | 31 | 12.0 | 15.0 | 0.00 | 0.00 | 0.00 | 38 | 1009.9 |
| 20260507062306 | 57 | 26 | 6.0 | 8.0 | 0.00 | 0.00 | 0.00 | 41 | 1009.7 |
| 20260507061805 | 57 | 51 | 8.0 | 9.0 | 0.00 | 0.00 | 0.00 | 41 | 1009.7 |
| 20260507061302 | 58 | 35 | 6.0 | 7.0 | 0.00 | 0.00 | 0.00 | 46 | 1009.4 |
| 20260507060800 | 58 | 46 | 4.0 | 5.0 | 0.00 | 0.00 | 0.00 | 44 | 1009.0 |
| 20260507060256 | 58 | 23 | 6.0 | 7.0 | 0.00 | 0.00 | 0.00 | 44 | 1008.8 |
| 20260507055753 | 57 | 38 | 7.0 | 7.0 | 0.00 | 0.00 | 0.00 | 49 | 1008.8 |
| 20260507055248 | 57 | 290 | 3.0 | 3.0 | 0.00 | 0.00 | 0.00 | 48 | 1008.5 |
| 20260507054745 | 58 | 288 | 1.0 | 1.0 | 0.00 | 0.00 | 0.00 | 46 | 1008.4 |
| 20260507054242 | 57 | 288 | 2.0 | 3.0 | 0.00 | 0.00 | 0.00 | 45 | 1008.5 |
| 20260507053739 | 55 | 250 | 0.0 | 0.0 | 0.00 | 0.00 | 0.00 | 48 | 1008.3 |
| 20260507053236 | 56 | 250 | 0.0 | 0.0 | 0.00 | 0.00 | 0.00 | 46 | 1008.3 |
| 20260507052735 | 56 | 250 | 0.0 | 0.0 | 0.00 | 0.00 | 0.00 | 45 | 1008.2 |
| 20260507052231 | 56 | 251 | 0.0 | 0.0 | 0.00 | 0.00 | 0.00 | 45 | 1008.3 |
| 20260507051730 | 56 | 251 | 0.0 | 0.0 | 0.00 | 0.00 | 0.00 | 44 | 1008.1 |
| 20260507051226 | 56 | 250 | 0.0 | 0.0 | 0.00 | 0.00 | 0.00 | 42 | 1008.4 |
| 20260507050722 | 57 | 250 | 0.0 | 0.0 | 0.00 | 0.00 | 0.00 | 41 | 1008.3 |
| 20260507050220 | 57 | 251 | 0.0 | 0.0 | 0.00 | 0.00 | 0.00 | 39 | 1008.4 |
| 20260507045716 | 58 | 250 | 0.0 | 0.0 | 0.00 | 0.00 | 0.00 | 39 | 1008.2 |
| 20260507045212 | 58 | 223 | 0.0 | 0.0 | 0.00 | 0.00 | 0.00 | 38 | 1008.5 |
| 20260507044710 | 59 | 210 | 0.0 | 0.0 | 0.00 | 0.00 | 0.00 | 37 | 1008.2 |
| 20260507044206 | 60 | 209 | 0.0 | 0.0 | 0.00 | 0.00 | 0.00 | 37 | 1008.3 |
| 20260507043703 | 60 | 178 | 0.0 | 0.0 | 0.00 | 0.00 | 0.00 | 38 | 1008.4 |
| 20260507043200 | 61 | 173 | 1.0 | 1.0 | 0.00 | 0.00 | 0.00 | 37 | 1008.1 |
| 20260507042656 | 60 | 156 | 0.0 | 0.0 | 0.00 | 0.00 | 0.00 | 37 | 1008.3 |
| 20260507042151 | 60 | 141 | 0.0 | 0.0 | 0.00 | 0.00 | 0.00 | 37 | 1008.3 |
| 20260507041648 | 61 | 140 | 0.0 | 0.0 | 0.00 | 0.00 | 0.00 | 38 | 1008.4 |
| 20260507041144 | 62 | 132 | 0.0 | 0.0 | 0.00 | 0.00 | 0.00 | 36 | 1008.5 |
| 20260507040642 | 63 | 104 | 0.0 | 0.0 | 0.00 | 0.00 | 0.00 | 36 | 1008.5 |
| 20260507040138 | 63 | 96 | 0.0 | 0.0 | 0.00 | 0.00 | 0.00 | 34 | 1008.5 |
| 20260507035634 | 64 | 100 | 1.0 | 1.0 | 0.00 | 0.00 | 0.00 | 33 | 1008.5 |
| 20260507035130 | 65 | 63 | 2.0 | 2.0 | 0.00 | 0.00 | 0.00 | 31 | 1008.5 |
| 20260507034627 | 66 | 244 | 0.0 | 1.0 | 0.00 | 0.00 | 0.00 | 29 | 1008.6 |
| 20260507034125 | 66 | 258 | 1.0 | 1.0 | 0.00 | 0.00 | 0.00 | 30 | 1008.3 |
| 20260507033623 | 65 | 256 | 0.0 | 0.0 | 0.00 | 0.00 | 0.00 | 31 | 1008.6 |
| 20260507033120 | 66 | 327 | 0.0 | 0.0 | 0.00 | 0.00 | 0.00 | 32 | 1008.6 |
| 20260507032617 | 66 | 55 | 5.0 | 7.0 | 0.00 | 0.00 | 0.00 | 30 | 1008.5 |
| 20260507032113 | 66 | 340 | 3.0 | 6.0 | 0.00 | 0.00 | 0.00 | 32 | 1008.4 |
| 20260507031610 | 66 | 336 | 3.0 | 3.0 | 0.00 | 0.00 | 0.00 | 34 | 1008.5 |
| 20260507031107 | 67 | 333 | 1.0 | 1.0 | 0.00 | 0.00 | 0.00 | 33 | 1008.4 |
| 20260507030603 | 67 | 335 | 2.0 | 3.0 | 0.00 | 0.00 | 0.00 | 32 | 1008.2 |
| 20260507030101 | 67 | 328 | 4.0 | 7.0 | 0.00 | 0.00 | 0.00 | 33 | 1008.3 |